| time (UTC) | temp F | wind direction | speed knots | gust knots | rain 1hr in | rain 24hr in | rain mn in | humidity % | barometer mb |
| 20260503203042 | 86 | 287 | 10.4 | 21.7 | 0.00 | 0.00 | 0.00 | 20 | 1008.2 |
| 20260503202522 | 86 | 278 | 11.3 | 21.7 | 0.00 | 0.00 | 0.00 | 21 | 1008.3 |
| 20260503202022 | 86 | 240 | 10.4 | 21.7 | 0.00 | 0.00 | 0.00 | 21 | 1008.4 |
| 20260503201539 | 86 | 213 | 9.6 | 17.4 | 0.00 | 0.00 | 0.00 | 21 | 1008.5 |
| 20260503201024 | 85 | 244 | 9.6 | 21.7 | 0.00 | 0.00 | 0.00 | 20 | 1008.5 |
| 20260503200521 | 86 | 188 | 13.0 | 21.7 | 0.00 | 0.00 | 0.00 | 20 | 1008.6 |
| 20260503200038 | 86 | 228 | 7.8 | 21.7 | 0.00 | 0.00 | 0.00 | 20 | 1008.6 |
| 20260503195521 | 86 | 241 | 10.4 | 21.7 | 0.00 | 0.00 | 0.00 | 20 | 1008.7 |
| 20260503195021 | 86 | 258 | 8.7 | 17.4 | 0.00 | 0.00 | 0.00 | 20 | 1008.7 |
| 20260503194539 | 86 | 231 | 9.6 | 17.4 | 0.00 | 0.00 | 0.00 | 20 | 1008.9 |
| 20260503194023 | 85 | 198 | 8.7 | 21.7 | 0.00 | 0.00 | 0.00 | 20 | 1009.0 |
| 20260503193522 | 85 | 188 | 12.2 | 21.7 | 0.00 | 0.00 | 0.00 | 19 | 1008.9 |
| 20260503193039 | 86 | 225 | 9.6 | 20.9 | 0.00 | 0.00 | 0.00 | 21 | 1009.0 |
| 20260503192522 | 85 | 288 | 7.0 | 22.6 | 0.00 | 0.00 | 0.00 | 23 | 1009.1 |
| 20260503192021 | 85 | 234 | 13.0 | 22.6 | 0.00 | 0.00 | 0.00 | 20 | 1009.2 |
| 20260503191538 | 85 | 225 | 11.3 | 22.6 | 0.00 | 0.00 | 0.00 | 21 | 1009.2 |
| 20260503191022 | 85 | 250 | 11.3 | 20.0 | 0.00 | 0.00 | 0.00 | 21 | 1009.3 |
| 20260503190523 | 85 | 310 | 9.6 | 21.7 | 0.00 | 0.00 | 0.00 | 24 | 1009.4 |
| 20260503190046 | 84 | 206 | 11.3 | 23.5 | 0.00 | 0.00 | 0.00 | 22 | 1009.5 |
| 20260503185521 | 84 | 204 | 12.2 | 23.5 | 0.00 | 0.00 | 0.00 | 22 | 1009.6 |
| 20260503185021 | 84 | 238 | 8.7 | 20.0 | 0.00 | 0.00 | 0.00 | 23 | 1009.7 |
| 20260503184539 | 84 | 268 | 10.4 | 21.7 | 0.00 | 0.00 | 0.00 | 24 | 1009.6 |
| 20260503184023 | 84 | 269 | 11.3 | 21.7 | 0.00 | 0.00 | 0.00 | 26 | 1009.7 |
| 20260503183521 | 84 | 289 | 10.4 | 20.0 | 0.00 | 0.00 | 0.00 | 26 | 1009.9 |
| 20260503183054 | 84 | 270 | 10.4 | 20.0 | 0.00 | 0.00 | 0.00 | 27 | 1009.9 |
| 20260503182521 | 83 | 269 | 11.3 | 20.0 | 0.00 | 0.00 | 0.00 | 27 | 1010.0 |
| 20260503182022 | 83 | 227 | 9.6 | 19.1 | 0.00 | 0.00 | 0.00 | 32 | 1010.1 |
| 20260503181539 | 82 | 266 | 9.6 | 19.1 | 0.00 | 0.00 | 0.00 | 30 | 1010.2 |
| 20260503181022 | 82 | 242 | 9.6 | 19.1 | 0.00 | 0.00 | 0.00 | 30 | 1010.4 |
| 20260503180522 | 82 | 243 | 9.6 | 17.4 | 0.00 | 0.00 | 0.00 | 30 | 1010.6 |
| 20260503180049 | 82 | 214 | 7.8 | 15.6 | 0.00 | 0.00 | 0.00 | 33 | 1010.7 |
| 20260503175521 | 81 | 229 | 7.0 | 16.5 | 0.00 | 0.00 | 0.00 | 34 | 1010.8 |
| 20260503175022 | 80 | 259 | 8.7 | 17.4 | 0.00 | 0.00 | 0.00 | 32 | 1010.9 |
| 20260503174538 | 80 | 238 | 9.6 | 19.1 | 0.00 | 0.00 | 0.00 | 35 | 1011.0 |
| 20260503174022 | 80 | 250 | 10.4 | 19.1 | 0.00 | 0.00 | 0.00 | 33 | 1011.1 |
| 20260503173522 | 80 | 227 | 8.7 | 14.8 | 0.00 | 0.00 | 0.00 | 35 | 1011.2 |
| 20260503173051 | 80 | 244 | 7.0 | 13.0 | 0.00 | 0.00 | 0.00 | 35 | 1011.2 |
| 20260503172521 | 79 | 327 | 7.0 | 13.9 | 0.00 | 0.00 | 0.00 | 34 | 1011.3 |
| 20260503172020 | 79 | 220 | 7.0 | 13.9 | 0.00 | 0.00 | 0.00 | 40 | 1011.3 |
| 20260503171543 | 78 | 241 | 7.8 | 17.4 | 0.00 | 0.00 | 0.00 | 36 | 1011.3 |
| 20260503171022 | 78 | 256 | 7.0 | 17.4 | 0.00 | 0.00 | 0.00 | 36 | 1011.4 |
| 20260503170521 | 78 | 229 | 8.7 | 14.8 | 0.00 | 0.00 | 0.00 | 36 | 1011.4 |
| 20260503150522 | 68 | 242 | 6.1 | 14.8 | 0.00 | 0.00 | 0.00 | 54 | 1012.7 |
| 20260503131023 | 50 | 197 | 5.2 | 9.6 | 0.00 | 0.00 | 0.00 | 82 | 1013.0 |
| 20260503130522 | 49 | 189 | 5.2 | 9.6 | 0.00 | 0.00 | 0.00 | 84 | 1013.0 |
| 20260503110523 | 43 | 186 | 3.5 | 5.2 | 0.00 | 0.00 | 0.00 | 81 | 1013.3 |
| 20260503081545 | 44 | 187 | 4.3 | 8.7 | 0.00 | 0.00 | 0.00 | 79 | 1014.5 |
| 20260503081022 | 44 | 161 | 5.2 | 8.7 | 0.00 | 0.00 | 0.00 | 79 | 1014.5 |
| 20260503080525 | 44 | 195 | 5.2 | 9.6 | 0.00 | 0.00 | 0.00 | 79 | 1014.7 |
| 20260503072523 | 43 | 194 | 3.5 | 5.2 | 0.00 | 0.00 | 0.00 | 76 | 1015.0 |
| 20260503072024 | 44 | 176 | 2.6 | 5.2 | 0.00 | 0.00 | 0.00 | 75 | 1014.9 |
| 20260503071546 | 44 | 180 | 2.6 | 4.3 | 0.00 | 0.00 | 0.00 | 75 | 1015.0 |
| 20260503071022 | 44 | 186 | 2.6 | 4.3 | 0.00 | 0.00 | 0.00 | 74 | 1015.0 |
| 20260503070522 | 44 | 164 | 2.6 | 4.3 | 0.00 | 0.00 | 0.00 | 74 | 1015.1 |
| 20260503055022 | 47 | 165 | 3.5 | 4.3 | 0.00 | 0.02 | 0.00 | 69 | 1015.6 |
| 20260503054541 | 47 | 156 | 1.7 | 3.5 | 0.00 | 0.02 | 0.00 | 69 | 1015.6 |
| 20260503054022 | 47 | 140 | 2.6 | 3.5 | 0.00 | 0.02 | 0.00 | 68 | 1015.7 |
| 20260503053523 | 47 | 140 | 1.7 | 2.6 | 0.00 | 0.02 | 0.00 | 67 | 1015.8 |
| 20260503053037 | 48 | 140 | 1.7 | 2.6 | 0.00 | 0.02 | 0.00 | 66 | 1015.8 |
| 20260503052524 | 48 | 140 | 1.7 | 2.6 | 0.00 | 0.02 | 0.00 | 67 | 1015.8 |
| 20260503052022 | 48 | 140 | 1.7 | 3.5 | 0.00 | 0.02 | 0.00 | 67 | 1015.8 |
| 20260503051550 | 48 | 136 | 0.9 | 3.5 | 0.00 | 0.02 | 0.00 | 67 | 1015.8 |
| 20260503051025 | 48 | 134 | 2.6 | 3.5 | 0.00 | 0.02 | 0.00 | 67 | 1015.8 |
| 20260503050526 | 48 | 128 | 2.6 | 4.3 | 0.00 | 0.02 | 0.00 | 67 | 1015.8 |
| 20260503050041 | 48 | 144 | 1.7 | 4.3 | 0.00 | 0.02 | 0.00 | 67 | 1015.9 |
| 20260503045527 | 48 | 150 | 1.7 | 4.3 | 0.00 | 0.04 | 0.02 | 67 | 1015.9 |
| 20260503045025 | 48 | 147 | 1.7 | 3.5 | 0.00 | 0.04 | 0.02 | 66 | 1015.9 |
| 20260503044538 | 48 | 159 | 1.7 | 3.5 | 0.00 | 0.04 | 0.02 | 65 | 1015.8 |
| 20260503044024 | 48 | 154 | 1.7 | 2.6 | 0.00 | 0.04 | 0.02 | 65 | 1015.9 |
| 20260503043524 | 48 | 148 | 1.7 | 3.5 | 0.00 | 0.04 | 0.02 | 65 | 1015.9 |
| 20260503043037 | 48 | 147 | 1.7 | 4.3 | 0.00 | 0.04 | 0.02 | 64 | 1015.9 |
| 20260503042525 | 49 | 163 | 2.6 | 4.3 | 0.00 | 0.04 | 0.02 | 64 | 1015.8 |
| 20260503042027 | 49 | 157 | 1.7 | 4.3 | 0.00 | 0.04 | 0.02 | 63 | 1015.8 |
| 20260503041537 | 49 | 146 | 2.6 | 4.3 | 0.00 | 0.04 | 0.02 | 63 | 1015.8 |
| 20260503041024 | 49 | 167 | 3.5 | 4.3 | 0.00 | 0.04 | 0.02 | 61 | 1015.8 |
| 20260503040529 | 50 | 165 | 1.7 | 4.3 | 0.00 | 0.04 | 0.02 | 60 | 1015.8 |
| 20260503040037 | 50 | 147 | 1.7 | 4.3 | 0.00 | 0.04 | 0.02 | 60 | 1015.7 |
| 20260503035524 | 50 | 159 | 1.7 | 4.3 | 0.00 | 0.04 | 0.02 | 60 | 1015.8 |
| 20260503035025 | 50 | 151 | 1.7 | 4.3 | 0.00 | 0.04 | 0.02 | 59 | 1015.8 |
| 20260503034540 | 51 | 144 | 1.7 | 3.5 | 0.00 | 0.04 | 0.02 | 59 | 1015.9 |
| 20260503034024 | 51 | 144 | 1.7 | 2.6 | 0.00 | 0.04 | 0.02 | 57 | 1015.9 |
| 20260503033525 | 51 | 144 | 1.7 | 2.6 | 0.00 | 0.04 | 0.02 | 56 | 1015.9 |
| 20260503033044 | 52 | 144 | 1.7 | 2.6 | 0.00 | 0.04 | 0.02 | 54 | 1015.9 |
| 20260503032525 | 52 | 144 | 1.7 | 2.6 | 0.00 | 0.04 | 0.02 | 55 | 1015.8 |
| 20260503032025 | 52 | 144 | 1.7 | 2.6 | 0.00 | 0.04 | 0.02 | 55 | 1015.9 |
| 20260503031538 | 53 | 144 | 1.7 | 2.6 | 0.00 | 0.04 | 0.02 | 54 | 1015.8 |
| 20260503031024 | 53 | 144 | 1.7 | 2.6 | 0.00 | 0.04 | 0.02 | 54 | 1015.8 |
| 20260503030526 | 53 | 144 | 1.7 | 2.6 | 0.00 | 0.04 | 0.02 | 53 | 1015.9 |
| 20260503030038 | 53 | 144 | 1.7 | 3.5 | 0.00 | 0.04 | 0.02 | 53 | 1015.7 |
| 20260503025524 | 54 | 144 | 1.7 | 3.5 | 0.00 | 0.04 | 0.02 | 53 | 1015.7 |
| 20260503025024 | 54 | 144 | 1.7 | 3.5 | 0.00 | 0.04 | 0.02 | 53 | 1015.7 |
| 20260503024539 | 54 | 144 | 1.7 | 3.5 | 0.00 | 0.04 | 0.02 | 52 | 1015.6 |
| 20260503024024 | 55 | 144 | 1.7 | 3.5 | 0.00 | 0.04 | 0.02 | 52 | 1015.6 |
| 20260503023525 | 55 | 144 | 2.6 | 3.5 | 0.00 | 0.04 | 0.02 | 50 | 1015.7 |
| 20260503023037 | 55 | 144 | 2.6 | 3.5 | 0.00 | 0.04 | 0.02 | 48 | 1015.7 |
| 20260503022520 | 56 | 144 | 2.6 | 3.5 | 0.00 | 0.04 | 0.02 | 48 | 1015.8 |
| 20260503022023 | 56 | 144 | 2.6 | 3.5 | 0.00 | 0.04 | 0.02 | 47 | 1015.7 |
| 20260503021538 | 57 | 144 | 1.7 | 2.6 | 0.00 | 0.04 | 0.02 | 47 | 1015.6 |
| 20260503021020 | 57 | 144 | 1.7 | 3.5 | 0.00 | 0.04 | 0.02 | 46 | 1015.6 |
| 20260503020523 | 57 | 144 | 1.7 | 3.5 | 0.00 | 0.04 | 0.02 | 46 | 1015.6 |
| 20260503020047 | 58 | 144 | 1.7 | 4.3 | 0.00 | 0.04 | 0.02 | 46 | 1015.6 |
| 20260503015520 | 58 | 144 | 2.6 | 4.3 | 0.00 | 0.04 | 0.02 | 46 | 1015.6 |
| 20260503015020 | 59 | 144 | 2.6 | 4.3 | 0.00 | 0.04 | 0.02 | 46 | 1015.6 |
| 20260503014606 | 59 | 144 | 2.6 | 3.5 | 0.00 | 0.04 | 0.02 | 45 | 1015.5 |
| 20260503014022 | 60 | 144 | 2.6 | 3.5 | 0.00 | 0.04 | 0.02 | 44 | 1015.6 |
| 20260503013521 | 60 | 144 | 2.6 | 3.5 | 0.00 | 0.04 | 0.02 | 44 | 1015.6 |
| 20260503013040 | 60 | 144 | 2.6 | 3.5 | 0.00 | 0.04 | 0.02 | 43 | 1015.6 |
| 20260503012521 | 62 | 144 | 2.6 | 3.5 | 0.00 | 0.04 | 0.02 | 43 | 1015.6 |
| 20260503012021 | 63 | 144 | 2.6 | 3.5 | 0.00 | 0.04 | 0.02 | 41 | 1015.5 |
| 20260503011546 | 64 | 209 | 1.7 | 2.6 | 0.00 | 0.04 | 0.02 | 39 | 1015.6 |
| 20260503011021 | 64 | 209 | 0.9 | 2.6 | 0.00 | 0.04 | 0.02 | 41 | 1015.6 |
| 20260503010520 | 64 | 209 | 0.9 | 2.6 | 0.00 | 0.04 | 0.02 | 40 | 1015.6 |
| 20260503010048 | 64 | 209 | 0.9 | 2.6 | 0.00 | 0.04 | 0.02 | 39 | 1015.5 |
| 20260503005520 | 65 | 209 | 0.9 | 2.6 | 0.00 | 0.04 | 0.02 | 36 | 1015.6 |
| 20260503005022 | 65 | 0 | 0.0 | 1.7 | 0.00 | 0.04 | 0.02 | 34 | 1015.7 |
| 20260503004606 | 66 | 0 | 0.0 | 1.7 | 0.00 | 0.04 | 0.02 | 34 | 1015.6 |
| 20260503004022 | 67 | 0 | 0.0 | 1.7 | 0.00 | 0.04 | 0.02 | 32 | 1015.7 |
| 20260503003526 | 67 | 211 | 0.0 | 2.6 | 0.00 | 0.04 | 0.02 | 32 | 1015.8 |
| 20260503003032 | 68 | 0 | 0.0 | 2.6 | 0.00 | 0.04 | 0.02 | 31 | 1015.6 |
| 20260503002523 | 68 | 224 | 0.9 | 3.5 | 0.00 | 0.04 | 0.02 | 28 | 1015.7 |
| 20260503002023 | 68 | 0 | 0.9 | 3.5 | 0.00 | 0.04 | 0.02 | 29 | 1015.8 |
| 20260503001539 | 69 | 252 | 1.7 | 4.3 | 0.00 | 0.04 | 0.02 | 26 | 1015.8 |
| 20260503001024 | 69 | 0 | 1.7 | 6.1 | 0.00 | 0.04 | 0.02 | 28 | 1015.8 |
| 20260503000526 | 69 | 256 | 2.6 | 7.0 | 0.00 | 0.04 | 0.02 | 28 | 1015.9 |
| 20260503000041 | 69 | 259 | 3.5 | 7.0 | 0.00 | 0.04 | 0.02 | 26 | 1016.0 |
| 20260502235523 | 69 | 240 | 2.6 | 7.0 | 0.00 | 0.04 | 0.02 | 28 | 1016.0 |
| 20260502235022 | 69 | 0 | 1.7 | 7.8 | 0.00 | 0.04 | 0.02 | 25 | 1016.0 |
| 20260502234543 | 69 | 265 | 3.5 | 7.8 | 0.00 | 0.04 | 0.02 | 26 | 1016.0 |
| 20260502234021 | 69 | 281 | 3.5 | 7.0 | 0.00 | 0.04 | 0.02 | 26 | 1016.0 |
| 20260502233524 | 69 | 259 | 3.5 | 7.0 | 0.00 | 0.04 | 0.02 | 27 | 1016.1 |
| 20260502233041 | 69 | 241 | 1.7 | 7.8 | 0.00 | 0.04 | 0.02 | 27 | 1016.0 |
| 20260502232522 | 69 | 313 | 0.9 | 7.8 | 0.00 | 0.04 | 0.02 | 26 | 1016.0 |
| 20260502232019 | 69 | 260 | 4.3 | 7.8 | 0.00 | 0.04 | 0.02 | 26 | 1016.1 |
| 20260502231538 | 69 | 333 | 2.6 | 9.6 | 0.00 | 0.04 | 0.02 | 28 | 1016.1 |
| 20260502231022 | 69 | 315 | 2.6 | 10.4 | 0.00 | 0.04 | 0.02 | 26 | 1016.1 |
| 20260502230524 | 69 | 302 | 6.1 | 10.4 | 0.00 | 0.04 | 0.02 | 28 | 1016.1 |
| 20260502230040 | 69 | 251 | 2.6 | 7.0 | 0.00 | 0.04 | 0.02 | 26 | 1016.1 |
| 20260502225522 | 69 | 283 | 1.7 | 7.0 | 0.00 | 0.04 | 0.02 | 27 | 1016.2 |
| 20260502225020 | 69 | 261 | 3.5 | 7.0 | 0.00 | 0.04 | 0.02 | 28 | 1016.1 |
| 20260502224538 | 69 | 360 | 1.7 | 6.1 | 0.00 | 0.04 | 0.02 | 27 | 1016.2 |
| 20260502224022 | 69 | 253 | 2.6 | 8.7 | 0.00 | 0.04 | 0.02 | 27 | 1016.1 |
| 20260502223523 | 69 | 0 | 1.7 | 8.7 | 0.00 | 0.04 | 0.02 | 30 | 1016.3 |
| 20260502223041 | 69 | 298 | 5.2 | 8.7 | 0.00 | 0.04 | 0.02 | 28 | 1016.3 |
| 20260502222523 | 69 | 336 | 3.5 | 7.0 | 0.00 | 0.04 | 0.02 | 28 | 1016.3 |
| 20260502222023 | 69 | 211 | 2.6 | 6.1 | 0.00 | 0.04 | 0.02 | 30 | 1016.3 |
| 20260502221537 | 69 | 292 | 2.6 | 7.8 | 0.00 | 0.04 | 0.02 | 30 | 1016.4 |
| 20260502221022 | 69 | 53 | 1.7 | 7.8 | 0.00 | 0.04 | 0.02 | 31 | 1016.4 |
| 20260502220522 | 68 | 5 | 1.7 | 6.1 | 0.00 | 0.04 | 0.02 | 31 | 1016.5 |
| 20260502220039 | 69 | 132 | 2.6 | 6.1 | 0.00 | 0.04 | 0.02 | 31 | 1016.4 |
| 20260502215522 | 69 | 128 | 0.9 | 7.0 | 0.00 | 0.04 | 0.02 | 32 | 1016.6 |
| 20260502215021 | 69 | 0 | 0.9 | 7.8 | 0.00 | 0.04 | 0.02 | 32 | 1016.7 |
| 20260502214540 | 69 | 294 | 3.5 | 7.8 | 0.00 | 0.04 | 0.02 | 30 | 1016.7 |
| 20260502214023 | 69 | 232 | 2.6 | 7.0 | 0.00 | 0.04 | 0.02 | 33 | 1016.7 |
| 20260502213522 | 69 | 225 | 2.6 | 7.8 | 0.00 | 0.04 | 0.02 | 30 | 1016.8 |
| 20260502213039 | 69 | 90 | 0.0 | 7.8 | 0.00 | 0.04 | 0.02 | 31 | 1016.9 |
| 20260502212524 | 69 | 28 | 3.5 | 7.8 | 0.00 | 0.04 | 0.02 | 34 | 1017.0 |
| 20260502212023 | 69 | 333 | 1.7 | 9.6 | 0.00 | 0.04 | 0.02 | 34 | 1017.1 |
| 20260502211543 | 69 | 281 | 3.5 | 11.3 | 0.00 | 0.04 | 0.02 | 29 | 1017.1 |
| 20260502211023 | 68 | 337 | 5.2 | 11.3 | 0.00 | 0.04 | 0.02 | 29 | 1017.2 |
| 20260502210522 | 68 | 275 | 5.2 | 11.3 | 0.00 | 0.04 | 0.02 | 29 | 1017.3 |
| 20260502210040 | 68 | 0 | 3.5 | 10.4 | 0.00 | 0.04 | 0.02 | 31 | 1017.4 |
| 20260502205523 | 68 | 343 | 1.7 | 11.3 | 0.00 | 0.04 | 0.02 | 31 | 1017.6 |
| 20260502205025 | 68 | 13 | 5.2 | 11.3 | 0.00 | 0.04 | 0.02 | 34 | 1017.6 |
| 20260502204540 | 68 | 360 | 4.3 | 9.6 | 0.00 | 0.04 | 0.02 | 31 | 1017.6 |
| 20260502204022 | 68 | 5 | 1.7 | 9.6 | 0.00 | 0.04 | 0.02 | 30 | 1017.6 |
| 20260502203522 | 68 | 22 | 5.2 | 12.2 | 0.00 | 0.04 | 0.02 | 35 | 1017.7 |